Wind_Speed
11 11 11 10 5 2 3 5 6 8 10 9 10 9 9 8 7 7 8 9 11 11 11 11 11 11 12 12 12 12 10 13 16 14 10 9 11 13 13 13 13 14 14 14 14 15 16 16 15 15 15 15 15 16 16 16 17 17 12 9 8 8 10 15 18 18 20 21 19 22 29 26 23 27 28 26 27 27 27 29 30 29 31 33 34 34 34 34
12 11 10 10 7 4 4 6 8 8 8 8 9 8 7 6 6 8 9 10 11 11 11 10 11 11 12 12 12 13 13 15 13 8 8 11 13 13 12 13 13 14 14 14 14 15 15 15 14 15 15 14 15 16 16 18 18 15 11 8 7 9 15 19 18 20 21 22 22 23 25 25 23 26 28 26 27 30 29 32 32 31 33 34 35 35 35 35
13 11 10 9 7 6 5 5 7 7 7 8 8 6 5 5 7 8 10 10 10 10 10 10 10 10 11 10 10 12 12 14 12 8 10 13 12 12 13 13 13 13 13 12 14 15 14 14 14 15 14 13 14 15 16 17 16 16 13 7 9 13 15 20 20 20 23 23 24 24 24 25 25 27 27 27 27 25 25 31 33 33 34 34 35 35 35 35
13 11 10 10 8 6 6 5 4 6 5 7 6 4 5 6 8 9 9 10 10 11 11 11 11 10 9 7 7 9 10 13 12 10 12 12 11 12 12 12 12 12 12 13 15 14 14 15 15 15 14 13 15 16 16 16 16 15 12 8 14 15 13 19 22 22 24 24 25 24 24 23 26 29 28 28 27 21 24 30 32 34 35 35 35 34 34 34
12 12 12 12 10 6 6 6 2 3 4 6 5 4 6 8 9 10 9 10 10 11 11 11 11 10 9 8 8 7 7 10 11 11 11 11 10 11 11 11 12 12 13 15 16 14 14 16 16 16 14 13 15 16 16 17 16 14 14 15 17 16 15 20 23 23 24 25 25 24 25 25 27 31 31 29 28 26 29 31 32 34 34 34 34 33 34 34
13 15 13 13 10 7 7 6 3 3 3 4 4 5 7 9 10 10 10 11 11 11 11 11 10 9 7 8 11 10 8 9 10 10 10 10 10 10 10 11 12 14 15 16 15 14 16 17 16 15 14 13 15 15 15 17 15 11 15 19 18 18 19 21 22 24 24 24 25 24 27 30 28 32 35 32 30 29 29 29 29 30 31 31 32 32 33 34
15 16 15 14 12 9 8 7 6 4 2 3 4 6 8 9 10 11 11 11 11 11 11 10 9 7 6 8 13 12 9 10 10 10 10 10 11 11 11 13 16 16 17 16 15 16 17 17 15 15 14 15 17 17 16 17 17 15 17 20 18 19 20 21 22 24 25 25 26 28 29 32 33 33 36 31 27 26 26 27 28 29 31 31 32 33 34 35
15 16 16 16 13 9 8 8 7 4 3 5 6 7 9 9 10 11 11 10 10 10 10 8 6 8 8 10 13 10 7 10 11 10 10 10 11 12 13 15 16 16 16 15 16 17 17 17 16 16 15 15 16 18 17 16 19 18 17 19 19 21 20 20 22 24 27 28 28 30 30 34 36 33 32 27 22 25 29 32 32 32 32 31 32 33 34 34
16 17 16 15 12 9 7 7 6 5 6 6 7 8 8 9 10 10 10 9 9 8 8 6 6 9 11 11 12 9 7 10 10 9 10 10 11 13 14 16 16 16 16 16 17 18 18 17 16 16 15 15 17 17 14 15 16 16 17 18 20 21 19 19 20 23 29 30 30 31 31 31 31 27 24 21 22 29 34 35 34 33 33 33 33 32 32 32
17 17 15 12 10 8 7 6 7 7 7 7 7 8 9 10 10 10 9 8 7 7 7 7 6 8 11 11 10 10 9 10 10 9 10 11 13 15 16 16 16 16 16 16 17 17 17 17 17 16 15 16 18 16 14 17 16 16 20 18 19 22 21 18 16 24 29 25 30 34 32 27 21 17 18 21 27 34 35 34 32 32 33 33 33 32 32 31
15 13 12 11 8 8 7 7 8 8 8 8 9 9 10 10 10 9 9 8 7 7 7 7 6 8 12 10 7 8 9 10 10 9 11 13 15 14 15 15 15 16 15 16 16 16 17 16 17 16 17 17 18 16 15 19 17 18 21 17 21 22 19 15 17 29 27 18 34 42 32 22 15 14 20 27 33 35 33 31 31 31 32 31 32 31 31 31
11 10 10 9 8 8 8 9 9 8 8 9 10 10 10 10 10 9 9 7 7 8 9 9 8 10 13 8 4 8 10 9 10 10 12 14 14 14 15 15 15 16 15 16 16 17 17 16 17 17 18 18 19 17 14 16 17 22 22 14 17 14 9 15 25 35 28 23 42 45 28 15 15 19 26 31 33 32 31 32 32 31 31 31 31 31 31 32
9 10 9 9 9 9 10 9 9 9 10 11 11 11 10 10 10 10 9 9 9 10 10 11 11 12 12 9 7 9 10 9 10 11 13 14 14 14 15 14 15 15 15 16 16 17 17 17 19 18 19 19 19 17 12 16 20 27 25 14 15 11 6 21 32 36 33 34 44 39 24 14 20 25 28 32 30 30 33 33 33 32 31 31 30 31 32 32
9 9 9 10 10 10 10 9 10 10 11 11 10 9 9 9 9 10 10 11 12 11 11 10 10 11 9 9 10 11 10 11 13 14 15 15 14 14 14 14 14 15 15 16 16 17 16 17 20 19 19 19 20 18 15 19 26 31 25 13 16 15 13 25 32 37 39 41 43 32 19 16 24 27 28 30 27 30 34 33 32 32 32 31 30 31 31 32
9 9 10 11 10 10 10 11 11 11 11 11 10 9 9 9 10 11 11 12 12 11 12 10 11 11 7 8 11 12 12 13 14 14 14 14 15 14 14 14 15 15 15 16 17 16 16 19 20 17 18 18 22 22 14 16 23 27 25 17 19 21 20 22 29 39 39 42 43 29 18 17 21 26 28 26 26 31 32 30 31 32 31 30 30 31 31 33
9 10 11 12 11 11 12 12 12 11 11 11 11 11 11 11 11 12 12 12 12 11 11 10 11 11 8 10 13 12 11 11 11 13 14 14 14 13 14 14 15 16 16 17 17 17 17 18 17 16 18 21 26 23 7 11 23 25 27 25 26 28 23 19 27 38 39 42 40 24 17 16 18 24 24 22 27 30 28 28 31 31 30 29 29 30 30 32
10 12 13 12 12 13 13 12 12 12 12 12 12 12 13 13 13 13 12 12 12 11 12 11 11 10 9 12 13 10 9 10 11 13 13 14 14 14 15 15 16 17 17 17 16 18 17 17 18 19 23 23 28 28 13 16 28 28 29 27 28 29 22 21 30 36 38 42 34 17 14 15 20 23 19 21 28 26 25 29 32 31 29 28 28 29 31 32
12 13 13 13 13 14 14 13 13 13 12 12 12 12 12 13 13 12 11 12 11 10 11 11 9 10 11 12 11 10 11 12 12 12 13 15 14 15 16 16 17 17 16 15 14 15 16 18 20 22 26 27 32 36 27 22 26 28 28 24 28 29 22 24 31 33 36 39 29 15 15 15 21 24 18 22 28 23 24 31 34 33 29 27 28 29 30 30
14 14 14 15 15 15 15 14 14 13 13 13 13 13 13 13 12 11 11 11 9 9 11 11 10 11 12 11 11 12 13 13 13 13 14 15 15 16 17 16 16 16 15 15 14 14 18 20 22 24 29 32 34 34 30 25 25 27 23 19 26 26 23 29 32 32 35 37 28 16 19 19 21 26 21 21 26 23 24 30 35 33 27 26 28 28 26 25
15 15 16 16 17 16 15 15 14 14 13 13 13 14 15 13 11 11 11 10 10 11 13 12 12 13 13 13 12 12 12 13 14 14 14 13 15 15 15 14 15 14 14 15 15 17 21 24 27 29 29 30 32 30 29 29 28 26 20 23 27 20 26 36 34 35 31 31 29 19 22 22 21 26 22 20 22 21 22 27 32 29 25 26 25 23 21 24
16 17 17 18 17 16 15 14 13 13 13 13 13 13 14 12 11 10 9 11 13 14 14 13 13 12 13 13 13 12 13 14 14 14 13 13 16 15 14 14 15 16 16 17 20 20 24 28 29 28 27 29 30 30 32 31 26 22 21 29 28 18 29 38 35 35 29 28 28 20 22 21 22 25 22 19 18 18 21 24 26 25 24 24 21 21 23 26
17 17 17 17 16 15 14 13 12 12 13 14 14 13 13 11 12 10 8 12 15 15 15 15 14 12 12 12 13 13 12 11 10 12 14 14 15 15 14 15 16 18 18 19 20 20 24 29 28 26 27 29 30 31 33 31 25 20 23 30 28 26 35 37 34 34 30 26 21 19 26 21 20 23 21 19 17 18 21 21 24 24 24 26 23 24 26 30
17 17 16 16 15 15 14 14 14 14 14 14 14 14 13 12 13 13 11 13 15 16 16 15 14 13 11 10 11 11 10 9 9 12 15 15 16 16 15 16 19 20 19 18 18 20 23 26 26 25 27 29 29 29 32 31 23 19 25 31 33 36 37 33 34 35 29 19 14 18 25 17 16 19 18 16 17 21 23 23 26 25 26 30 27 26 31 39
17 17 16 15 15 15 15 14 13 12 12 12 13 13 13 13 13 13 13 13 15 15 15 15 13 12 11 10 8 9 11 11 12 15 17 17 18 18 17 18 20 20 20 18 18 23 24 24 25 25 28 31 28 28 31 32 23 15 24 34 35 37 33 28 31 33 25 14 11 18 17 9 12 16 15 17 21 23 23 25 30 26 25 28 27 29 38 48
17 16 16 16 15 14 13 11 9 8 8 8 10 11 11 10 10 10 10 11 14 14 12 11 11 11 11 10 8 8 11 13 14 16 18 19 20 19 18 19 20 21 21 16 16 21 23 24 26 25 28 30 28 29 30 32 23 11 22 36 35 33 31 26 26 26 19 11 14 17 12 10 13 14 15 20 22 23 25 29 31 23 18 24 32 38 45 53
16 16 16 15 13 11 9 7 6 6 6 7 7 8 7 6 6 7 8 8 11 12 10 9 10 11 10 10 10 8 9 13 15 17 19 20 21 20 18 18 20 21 20 17 14 16 21 25 25 25 28 28 29 28 28 32 23 12 25 37 34 29 25 23 21 18 14 14 15 15 14 17 17 11 14 20 22 24 25 22 21 19 19 27 38 48 55 60
16 16 15 12 10 8 6 5 5 5 5 6 7 7 6 4 4 4 4 3 5 9 10 9 9 10 10 11 12 10 9 13 14 16 20 20 20 20 18 19 20 21 22 18 13 13 19 23 25 26 26 28 30 27 27 31 23 18 32 38 33 28 21 20 17 12 14 15 12 14 21 23 19 12 16 22 19 18 19 17 20 25 27 35 48 57 61 60
16 15 12 9 8 7 5 5 4 4 4 5 6 6 6 5 5 4 1 1 1 5 6 7 8 8 10 11 13 13 12 13 14 16 19 19 19 19 19 18 19 21 23 19 12 10 15 22 26 26 26 29 30 27 29 30 26 27 36 39 33 26 20 16 12 11 16 13 8 18 25 21 18 15 15 16 11 14 24 30 32 30 33 46 56 57 56 57
16 13 9 7 7 5 5 4 3 3 3 5 6 6 5 5 5 4 1 0 0 2 4 6 7 8 10 11 12 13 13 13 14 16 18 19 19 19 20 19 18 20 23 21 16 13 14 20 26 26 27 30 28 27 29 29 31 34 37 40 31 21 19 12 8 11 15 10 10 21 25 18 15 12 8 10 15 25 35 38 35 33 42 56 53 42 43 54
13 9 7 6 5 4 4 3 3 3 4 5 6 6 6 5 4 2 1 2 2 1 3 5 6 8 9 10 11 12 12 13 14 14 16 18 19 18 20 20 18 18 22 23 19 15 13 16 26 28 25 28 28 27 30 30 33 36 37 40 27 16 17 7 5 11 12 7 12 21 25 18 13 11 9 15 26 34 38 38 37 41 51 54 46 40 46 55
10 7 6 5 4 4 4 4 4 4 4 5 6 6 5 5 3 2 2 4 5 3 3 4 5 7 8 9 9 11 11 12 12 12 14 18 18 17 19 22 21 15 16 23 22 17 14 14 23 29 25 29 29 26 29 30 31 34 35 35 22 11 11 4 3 11 7 6 15 24 25 16 13 15 16 24 34 35 35 38 40 46 51 44 39 44 52 56
8 6 5 5 4 4 4 5 6 5 5 5 5 5 5 4 2 2 5 7 5 3 3 3 4 5 7 9 9 10 11 11 12 13 15 18 18 19 22 26 26 15 9 19 22 17 14 13 21 29 28 31 30 25 28 28 28 35 37 35 24 13 11 7 7 11 6 8 20 26 21 14 15 18 23 31 37 34 35 38 38 39 42 39 41 49 54 53
7 6 5 5 4 5 5 6 6 5 4 4 4 5 5 3 2 5 9 7 4 4 4 4 4 5 7 8 10 10 10 11 12 14 15 17 20 23 24 25 26 20 12 18 22 16 10 10 18 26 27 30 30 26 28 26 26 32 35 31 20 11 8 7 8 10 7 12 25 26 17 15 18 20 27 34 34 33 33 31 30 33 41 46 48 52 54 49
7 6 6 5 5 5 6 6 6 5 4 4 4 4 3 2 3 8 9 6 5 7 6 4 4 5 7 7 9 10 10 11 12 14 15 17 21 22 22 22 23 23 20 17 20 18 8 5 15 22 23 27 26 23 25 25 20 23 26 22 14 7 3 5 8 9 12 20 27 21 10 13 21 23 29 31 30 31 27 24 30 40 48 52 51 54 53 47
7 7 6 5 5 6 6 6 6 5 5 4 4 4 2 2 6 8 7 6 8 7 6 5 4 5 7 7 8 9 10 11 12 13 14 15 19 20 20 22 21 23 23 16 17 20 9 5 13 21 23 25 23 20 23 21 15 17 20 18 14 7 5 11 13 14 20 22 18 11 9 18 26 26 27 27 28 30 30 31 39 47 52 53 54 55 52 46
7 6 6 6 6 6 6 6 5 5 4 4 4 4 4 4 7 7 6 7 8 7 6 4 3 3 5 5 7 8 10 11 11 12 14 13 16 20 19 20 21 22 23 18 18 21 12 6 12 21 26 25 20 20 23 20 16 17 16 18 17 9 5 11 14 15 17 14 11 12 18 26 26 19 20 26 29 34 39 40 45 51 55 55 55 55 51 46
6 7 6 6 6 6 6 6 5 5 4 4 5 5 5 6 7 6 6 6 6 6 5 3 1 2 3 4 6 8 9 11 11 11 13 12 12 17 19 18 20 21 22 21 19 20 16 9 11 20 26 23 18 20 21 20 21 18 14 19 19 8 5 9 11 11 9 8 10 13 19 26 22 16 22 30 32 37 43 47 52 56 57 56 57 55 50 45
7 7 7 7 7 6 6 6 5 4 3 3 4 4 6 7 7 7 6 6 5 5 5 4 2 2 3 4 4 7 8 10 11 10 11 11 9 13 17 17 19 20 20 20 20 20 17 10 11 20 25 21 17 18 17 18 24 22 17 22 21 8 6 12 9 7 8 8 9 10 15 20 17 20 29 31 34 40 44 49 56 58 57 57 57 54 49 44
7 7 7 7 6 5 5 5 5 4 3 3 2 3 5 6 7 7 6 5 6 5 4 4 3 3 4 5 4 5 7 8 10 9 9 10 9 11 16 17 18 19 19 19 20 20 17 9 9 20 23 18 15 14 12 14 21 22 18 19 20 12 9 12 5 4 9 9 9 13 15 13 15 24 28 27 32 38 40 47 54 56 56 57 56 53 48 43
7 7 6 6 5 5 5 5 5 5 4 3 3 3 5 6 7 7 6 6 6 4 4 4 4 4 4 5 4 4 6 8 9 9 9 11 10 11 15 16 18 19 18 18 20 20 18 10 11 20 20 12 10 11 13 14 15 17 14 14 20 18 12 11 6 6 8 8 9 11 11 18 25 25 22 26 32 36 40 48 54 55 54 54 54 52 46 42
7 6 6 5 5 5 5 5 5 5 5 4 4 4 5 7 6 7 7 6 5 4 4 4 4 4 4 4 4 4 5 7 9 9 9 11 12 11 14 16 18 19 19 19 21 20 16 11 17 23 16 9 10 13 16 15 14 17 15 12 19 18 13 10 5 6 7 9 14 11 13 26 31 19 19 30 33 36 44 51 54 53 52 53 53 50 44 42
6 6 5 4 4 5 5 5 5 6 5 5 5 5 5 6 7 6 6 5 5 5 3 3 3 3 3 3 4 5 4 6 9 9 9 10 11 12 14 16 18 20 21 20 21 21 15 12 21 24 13 11 13 13 14 13 14 19 17 16 20 18 14 11 6 11 15 15 18 14 15 24 24 14 22 33 31 35 45 51 53 52 51 52 52 49 44 41
7 6 5 4 4 5 5 5 6 6 6 5 6 6 6 6 7 6 6 6 5 4 4 3 2 2 2 2 3 5 4 5 7 9 8 9 10 11 12 15 18 20 21 20 21 22 16 14 22 21 13 13 14 12 13 14 16 17 16 22 24 20 19 16 12 17 18 15 16 11 11 21 25 22 29 35 33 39 48 51 52 51 50 51 50 48 43 40
6 5 4 4 3 4 5 5 5 5 5 5 6 6 6 6 7 7 6 7 6 5 5 3 2 2 1 1 2 5 4 4 6 8 8 8 9 10 11 13 16 18 20 21 22 22 16 15 19 16 10 9 9 8 9 14 17 14 16 25 25 21 22 20 15 14 12 11 12 10 14 26 33 33 35 35 35 44 51 51 50 50 50 50 50 48 42 40
4 4 3 3 3 4 4 5 6 6 5 5 6 6 6 7 7 7 7 6 6 6 5 3 2 1 0 1 2 4 3 4 6 7 7 8 8 9 10 11 14 16 18 19 21 21 18 18 17 11 8 7 7 9 12 16 20 19 22 27 25 21 21 20 15 12 11 13 16 18 24 37 41 40 38 37 40 49 53 50 50 49 48 49 50 47 43 40
3 2 2 2 2 3 4 5 6 6 6 6 6 6 7 7 7 8 7 7 7 6 5 4 3 1 0 1 2 3 4 5 6 6 8 8 8 9 9 10 12 14 16 17 19 20 19 20 18 14 13 12 15 18 18 20 24 25 24 25 25 22 21 21 17 15 16 19 24 25 28 39 47 47 42 41 46 52 52 50 51 50 48 49 49 47 43 39
2 2 1 2 2 3 4 5 6 7 7 7 7 7 7 8 8 8 8 7 7 6 6 5 3 2 1 2 2 3 5 5 5 7 7 8 9 9 9 10 10 12 15 17 17 19 20 21 21 21 21 18 18 20 19 20 24 25 23 22 23 21 21 21 20 19 18 17 24 28 27 35 46 48 43 45 49 51 51 50 50 50 49 48 48 47 44 39
2 2 2 3 4 4 5 5 6 6 6 7 8 7 7 8 9 9 8 8 7 6 6 6 4 3 2 2 3 4 5 5 6 7 7 8 9 9 9 10 10 11 15 16 17 18 19 20 21 24 25 19 18 20 21 22 24 22 20 19 20 22 23 24 23 24 20 20 28 37 35 37 44 44 42 47 49 49 50 49 49 49 48 48 48 47 43 39
3 3 3 3 4 5 5 5 6 6 6 7 8 8 8 9 9 9 9 9 8 7 7 6 5 4 4 3 4 5 5 6 7 7 8 9 9 10 10 9 9 12 14 15 18 18 18 21 23 26 27 20 17 21 25 26 25 21 17 17 18 21 25 26 27 26 24 29 36 38 36 39 41 40 43 46 46 47 49 48 48 49 48 48 48 46 43 39
3 2 3 4 4 5 5 5 6 7 7 7 8 9 9 9 9 9 9 9 9 8 7 7 6 6 5 4 5 5 6 7 8 8 9 9 10 11 10 9 11 13 14 16 18 18 19 22 23 27 29 25 21 26 29 28 27 20 15 15 17 20 24 26 28 28 27 33 36 33 36 41 40 38 43 45 45 47 48 47 48 48 47 48 47 45 44 40
2 3 3 5 6 6 6 6 6 7 7 8 8 9 9 10 10 10 10 9 9 9 8 7 7 7 6 6 6 6 7 7 8 9 10 10 11 12 11 11 12 13 15 17 18 19 21 23 25 27 29 27 26 29 30 29 26 20 14 14 17 21 25 27 29 30 30 32 33 30 35 40 41 41 45 45 45 47 47 46 47 47 47 46 45 45 45 41
2 3 4 6 6 7 7 6 7 7 8 8 9 9 10 10 10 10 10 10 10 10 9 8 8 8 8 7 7 7 7 8 9 10 10 11 11 12 12 13 12 14 17 17 18 20 21 24 26 24 25 27 27 28 29 24 17 13 14 18 20 22 26 30 33 34 33 30 29 31 35 40 42 43 46 46 45 46 46 46 47 47 46 45 45 45 44 43
Wind_Direction
180 188 193 194 188 138 112 94 89 79 70 65 64 69 66 57 53 56 63 70 75 79 82 84 82 85 86 79 73 68 61 63 53 38 42 43 40 42 39 38 33 31 26 24 26 25 26 23 19 15 14 16 10 5 7 4 5 10 8 350 342 353 331 316 321 320 317 317 317 313 315 322 318 311 313 315 308 303 302 293 288 287 286 286 287 288 290 290
165 177 187 193 192 164 139 110 91 80 74 65 64 71 66 61 63 68 77 81 82 83 86 88 86 86 82 73 67 61 53 60 56 29 36 45 44 46 42 40 36 33 28 23 27 27 26 21 17 17 17 14 6 5 6 1 4 10 8 355 337 332 320 319 325 320 319 319 318 317 316 318 314 308 312 313 307 308 305 293 291 290 289 289 289 290 290 289
151 162 172 181 179 160 152 125 89 81 79 65 65 66 63 70 72 80 87 88 87 84 89 93 91 85 79 74 69 64 54 59 60 42 46 48 46 46 42 38 36 36 31 26 31 30 25 21 18 20 18 13 6 5 6 2 359 0 13 11 319 325 322 323 330 325 322 322 321 320 317 317 312 309 311 310 310 311 300 295 299 296 294 293 292 291 290 289
145 157 166 168 160 150 158 154 95 78 84 66 62 61 71 80 82 90 93 94 92 88 93 95 93 85 76 70 65 64 57 58 59 53 53 51 48 46 41 36 37 38 33 33 36 30 24 24 20 20 18 13 7 4 5 2 356 354 5 354 328 336 329 325 330 325 323 322 321 319 317 317 314 312 312 313 314 306 293 295 298 295 296 295 293 292 291 290
150 160 164 164 153 142 157 168 125 82 93 66 59 71 86 92 94 99 99 100 97 95 97 93 91 82 72 66 62 59 56 59 55 56 58 54 52 48 43 41 42 40 34 36 33 27 25 22 18 19 18 14 9 3 357 357 3 358 347 343 339 341 333 327 327 323 322 322 319 318 316 315 317 316 314 317 315 304 298 297 294 293 296 295 294 293 292 291
152 153 154 159 155 150 153 154 138 115 94 69 75 91 98 103 104 105 105 105 103 99 92 85 82 76 75 77 70 58 58 72 62 62 63 57 55 50 48 45 43 38 33 32 27 24 23 19 18 16 14 12 8 2 352 354 8 3 338 340 342 341 337 330 327 324 324 323 319 318 316 314 320 319 316 317 312 306 304 301 300 301 301 299 298 297 296 295
145 148 148 155 159 164 164 153 147 145 111 93 102 104 108 110 108 108 108 108 105 98 88 81 80 82 93 90 78 60 59 80 73 69 65 56 54 47 43 39 36 32 28 26 22 21 19 17 16 12 13 10 1 358 354 351 359 357 338 338 344 342 339 333 329 327 326 326 320 319 321 318 322 321 316 316 312 310 311 309 309 308 306 304 302 301 299 296
140 146 147 153 161 168 171 158 151 155 134 115 114 114 115 112 111 112 112 110 103 95 86 82 89 97 92 84 81 66 60 77 74 71 63 54 49 41 37 35 32 28 24 21 17 17 15 13 13 11 11 5 356 355 357 354 351 348 340 341 346 343 341 336 332 333 329 326 322 321 326 323 321 319 313 314 314 315 315 312 312 311 309 306 302 300 297 293
142 143 144 152 161 167 171 161 145 142 128 120 122 120 116 113 114 115 114 109 100 95 89 85 95 93 85 80 80 77 75 77 75 69 60 54 47 39 36 32 28 24 20 14 13 13 10 10 11 8 5 359 355 354 358 359 347 343 347 346 347 346 342 334 332 340 331 326 327 326 330 326 319 313 307 309 313 315 315 313 314 314 313 309 304 300 294 290
146 145 150 158 163 165 169 156 136 133 127 127 130 123 118 114 114 115 111 105 98 98 95 92 98 100 94 83 79 84 81 78 78 65 56 52 43 37 33 29 24 19 15 11 11 8 6 9 8 4 2 358 356 355 357 358 352 351 350 345 352 350 340 335 326 337 336 331 336 339 340 332 320 312 304 312 316 316 317 317 319 318 316 311 306 300 294 288
146 147 160 163 162 161 156 143 133 133 133 134 132 124 119 115 115 115 109 100 94 96 103 106 114 110 93 76 71 87 82 74 71 57 48 44 40 36 29 26 19 14 10 7 6 4 6 9 5 3 3 0 357 359 355 355 359 356 350 349 358 351 338 334 321 336 347 341 340 348 349 331 320 319 308 315 318 318 322 323 324 322 319 313 307 301 294 289
151 155 163 160 154 151 144 139 136 135 134 131 128 123 120 119 118 114 108 106 106 107 110 108 102 92 86 89 111 95 79 66 61 53 45 40 36 31 26 22 14 10 6 3 3 4 9 8 5 7 5 2 359 358 352 356 3 357 359 7 0 350 331 329 331 345 356 346 344 351 355 327 314 320 313 319 322 323 329 328 327 324 320 315 308 303 297 292
162 159 158 154 147 142 141 141 136 132 126 122 120 120 120 121 119 114 113 116 115 112 108 103 96 89 91 108 116 89 76 65 59 50 42 37 31 26 21 15 10 6 3 2 4 6 9 7 7 9 5 3 0 357 354 358 1 1 6 12 1 2 335 332 339 348 350 348 351 353 352 326 312 320 320 325 328 329 332 330 328 326 322 316 309 304 299 295
165 156 152 146 140 140 141 138 132 127 121 117 116 118 122 125 125 120 118 118 113 107 104 106 103 95 91 99 97 85 73 60 51 41 35 30 24 20 14 9 7 6 4 3 7 8 7 9 10 7 3 4 4 5 6 1 359 2 8 6 360 359 339 339 343 347 346 348 354 352 344 319 312 323 326 327 331 332 331 328 329 328 324 318 310 306 300 296
158 150 145 139 137 137 136 131 128 124 118 116 116 120 123 125 129 123 116 115 113 107 104 103 96 88 88 95 85 72 60 52 47 38 32 25 19 14 7 6 7 7 7 7 10 9 10 12 8 1 2 9 14 18 18 6 359 1 5 357 354 354 347 348 342 343 345 345 351 351 341 322 309 320 326 326 332 332 328 326 329 327 322 316 309 305 300 299
150 145 141 137 137 132 129 127 125 122 121 122 121 120 116 115 123 123 116 113 113 111 104 98 93 87 84 81 69 58 54 53 49 39 31 23 16 10 7 8 8 8 10 9 9 11 14 11 360 359 8 12 18 25 36 1 360 1 2 357 353 353 351 349 340 341 343 344 351 351 339 322 301 316 324 327 333 330 328 329 327 323 316 309 303 300 298 299
147 145 141 139 134 129 128 127 125 126 126 126 123 119 113 109 111 113 116 118 115 110 100 91 90 90 79 72 67 62 60 55 45 37 29 19 12 9 10 11 10 10 10 8 11 15 13 4 3 11 13 12 15 22 30 1 358 358 0 0 355 353 348 341 339 340 339 343 352 349 333 312 297 316 323 330 339 333 330 333 326 319 311 304 299 297 295 295
148 146 142 138 133 130 131 130 130 129 126 124 122 119 114 110 106 107 116 120 118 111 97 86 86 87 77 72 71 63 54 45 37 32 23 15 12 11 12 13 12 10 9 11 14 15 11 7 14 18 13 14 14 18 22 7 358 359 2 0 352 350 345 337 338 338 336 343 352 342 332 319 301 314 320 330 341 336 336 340 330 319 310 305 302 296 293 290
149 146 142 137 133 133 134 131 128 124 121 122 119 117 111 105 103 108 114 116 118 110 94 86 85 82 76 71 63 55 48 40 33 25 16 12 12 12 14 16 11 9 11 14 15 13 11 11 19 20 16 16 15 16 17 5 2 7 7 356 347 343 337 338 340 341 338 340 349 337 332 330 302 307 316 324 334 333 338 343 330 318 310 308 303 297 296 294
147 144 141 137 136 136 133 128 124 122 123 123 120 115 104 96 94 97 105 110 111 102 93 86 80 75 70 62 53 51 47 39 33 23 13 12 15 14 16 17 11 12 14 16 21 18 13 17 22 23 20 15 12 13 10 6 8 9 3 351 349 340 333 341 345 345 342 336 341 338 330 327 301 302 307 312 327 330 333 335 327 320 313 308 302 301 304 303
145 143 141 140 138 136 130 126 126 128 131 127 120 110 99 96 93 94 110 114 101 91 86 77 70 66 59 54 47 43 39 33 28 19 15 16 16 15 16 16 11 14 17 18 23 19 15 22 26 23 19 10 8 12 10 9 9 4 356 351 351 339 335 344 346 345 345 334 332 332 327 318 300 300 295 298 321 326 324 326 325 324 313 305 303 304 306 309
144 142 141 140 137 132 127 126 129 132 130 123 115 108 105 105 101 102 117 109 93 83 79 71 65 60 56 52 44 39 36 31 25 20 21 21 16 16 17 14 13 17 21 24 26 21 18 23 25 20 15 8 7 11 10 9 6 355 353 351 349 344 341 343 344 345 347 334 320 324 329 313 290 297 290 294 319 325 323 325 325 324 314 306 305 305 309 316
145 141 139 138 133 129 128 128 130 129 124 118 113 113 114 112 105 102 102 96 87 79 74 68 60 56 54 53 47 45 44 37 29 25 23 22 19 18 19 18 18 20 21 26 32 31 25 23 20 15 12 10 9 8 5 8 5 348 351 353 348 348 344 337 340 349 351 332 304 321 328 305 281 295 293 297 320 327 329 332 327 323 317 312 310 313 318 320
146 141 140 139 134 132 132 131 132 129 125 120 118 119 117 112 106 99 95 88 79 72 67 63 59 55 51 49 48 46 42 33 26 26 24 24 22 19 20 20 20 21 20 21 25 28 29 22 16 14 11 13 11 4 3 8 6 341 347 353 348 347 345 337 340 348 349 337 323 327 326 316 300 296 298 309 320 327 333 334 330 324 319 316 315 319 320 321
146 142 142 142 140 139 139 140 143 144 140 133 129 129 124 115 106 99 94 79 64 58 59 58 53 51 47 44 44 43 39 31 25 26 25 25 25 21 21 21 21 24 23 22 24 25 25 19 15 14 12 12 9 3 3 8 10 343 342 350 348 347 347 346 346 342 342 342 338 341 340 340 324 298 306 319 321 330 334 331 330 325 316 317 321 322 321 322
145 144 145 145 146 149 154 160 167 169 165 161 154 150 143 129 115 101 90 74 52 42 47 53 45 42 41 41 41 41 37 28 24 25 24 26 26 22 22 22 24 27 24 24 29 23 18 15 14 12 11 10 7 5 3 6 12 352 342 350 351 349 349 351 347 333 333 330 329 359 1 330 323 308 310 321 323 330 332 327 328 324 314 317 323 324 325 325
145 146 146 148 154 160 165 170 172 173 170 173 178 182 186 183 159 126 95 79 37 27 37 48 43 38 38 40 38 38 39 28 22 24 25 26 25 24 26 25 25 28 26 27 28 19 15 14 12 11 10 8 6 6 2 4 8 350 346 353 355 354 353 346 337 317 324 324 319 4 358 328 321 313 311 324 326 329 330 323 322 319 316 320 324 326 327 327
147 147 148 155 165 169 170 168 169 170 168 172 182 194 202 205 191 172 137 307 358 17 29 40 43 39 37 40 36 37 41 29 24 28 26 24 24 25 29 29 28 28 27 30 30 18 13 12 10 9 8 8 6 3 1 2 1 352 352 357 357 358 353 333 318 317 325 322 323 353 352 333 318 313 317 330 327 320 323 321 320 317 318 325 326 326 328 328
148 150 156 167 172 173 173 168 166 166 169 171 176 180 180 179 177 176 183 271 303 26 37 38 41 42 38 40 36 35 38 30 29 31 26 23 24 25 27 28 29 28 26 27 27 19 10 10 9 6 6 7 2 360 2 0 357 357 357 358 357 358 352 322 279 320 324 319 340 349 349 335 317 319 323 321 314 316 320 321 319 317 324 329 327 324 325 327
152 156 165 172 176 180 177 166 158 162 167 167 168 168 163 154 149 168 234 204 184 109 66 46 39 42 41 42 38 34 35 32 31 32 27 26 25 25 26 25 24 24 23 20 21 21 11 6 6 6 5 3 0 0 2 360 359 0 358 357 359 356 352 331 266 329 330 333 349 345 341 326 310 327 317 305 312 315 320 321 318 322 331 332 330 327 325 326
159 165 172 178 182 182 179 166 153 144 144 155 169 178 178 171 173 237 240 174 160 132 91 64 49 48 45 44 40 34 33 31 31 32 29 27 25 22 23 24 25 26 19 13 15 16 13 7 2 2 1 360 4 5 360 360 1 0 359 0 2 350 347 351 331 348 345 334 340 338 333 314 303 320 310 308 314 314 317 321 320 329 336 334 329 327 326 328
171 179 182 187 186 181 175 163 151 137 134 149 172 180 175 176 222 239 169 160 167 155 112 88 71 60 52 44 35 29 27 26 27 30 30 25 22 22 24 25 27 31 15 9 13 7 360 2 358 358 359 359 3 5 1 1 360 359 4 7 7 1 358 358 346 347 327 310 330 333 326 310 309 312 305 310 314 312 316 319 321 331 336 331 326 326 327 331
181 186 185 184 182 178 170 164 160 151 146 151 165 173 171 183 231 183 164 165 182 171 145 116 90 67 56 45 33 26 19 19 23 27 30 26 24 28 28 25 26 27 16 11 15 7 348 352 356 356 357 356 358 4 4 2 0 3 9 12 12 8 356 345 334 330 309 305 320 323 316 314 318 311 307 310 312 314 316 318 326 333 333 329 327 328 332 335
184 182 175 173 174 172 169 169 169 167 162 158 162 166 170 202 194 176 176 181 162 153 146 129 99 69 59 48 35 24 16 17 20 23 26 26 27 29 27 25 25 23 20 15 12 10 355 332 351 354 354 353 356 2 3 3 6 7 9 14 16 14 336 314 321 315 304 306 313 317 319 323 323 312 308 312 320 324 317 316 330 333 331 330 330 333 335 337
177 171 164 165 168 166 166 169 170 171 169 170 170 170 188 205 180 175 181 176 157 150 144 133 108 72 62 52 33 20 17 18 16 20 24 25 27 27 24 25 23 20 23 21 9 9 2 290 335 351 353 353 353 357 2 8 10 4 6 10 2 349 273 273 284 285 291 299 309 318 316 321 323 312 309 322 330 328 320 318 325 328 330 333 336 338 338 338
168 163 162 164 163 159 161 164 167 170 173 176 170 179 203 194 176 175 172 166 164 164 151 131 107 74 62 49 33 21 17 16 13 16 19 21 24 24 22 22 21 21 22 20 13 11 3 312 334 349 351 353 351 350 359 9 9 2 5 5 353 336 288 282 284 288 292 293 309 321 315 321 328 319 319 331 327 322 324 324 325 329 334 337 340 340 340 338
164 164 165 163 153 150 152 153 158 163 171 187 190 205 213 194 182 178 167 162 166 173 172 155 116 90 69 52 36 25 17 16 15 14 15 17 18 17 19 19 20 21 20 18 15 9 0 343 344 348 348 350 351 349 353 359 2 3 2 3 1 352 339 328 307 305 314 302 304 316 316 321 330 328 324 327 322 321 325 326 329 335 338 340 341 341 340 338
165 166 165 160 151 150 152 150 154 157 162 187 208 223 214 198 189 177 163 160 154 157 174 176 156 116 85 73 47 29 23 19 17 15 13 12 9 10 15 17 17 18 19 18 13 7 4 354 344 347 346 347 353 358 356 345 348 357 0 3 10 7 321 333 321 308 329 320 304 318 318 317 327 328 322 324 327 328 327 327 332 337 339 340 341 341 340 338
162 160 156 155 157 163 167 169 172 178 191 211 219 219 209 198 189 178 167 161 154 149 161 166 158 140 100 71 60 35 24 21 19 21 16 8 4 6 10 13 14 15 17 17 12 7 5 359 338 344 345 345 354 2 354 333 338 352 357 357 6 6 328 332 330 293 324 323 305 315 313 312 330 327 323 328 330 328 326 327 332 336 339 340 341 341 339 338
156 154 151 152 163 172 175 178 184 193 207 218 220 228 219 204 195 185 172 160 158 160 157 155 140 131 107 63 58 35 20 19 18 21 21 12 9 6 7 8 9 11 13 15 14 7 4 359 337 344 350 347 338 334 334 333 333 344 349 343 353 2 346 326 293 267 313 318 311 318 301 306 326 327 325 332 327 321 323 326 332 338 339 340 341 340 339 338
155 157 159 162 177 187 186 183 183 189 205 220 232 241 225 210 203 188 175 163 162 166 158 154 137 114 99 64 46 25 17 17 15 17 15 12 11 6 4 4 4 7 7 10 13 9 6 354 338 345 348 319 301 310 326 334 331 334 339 335 343 355 353 336 299 268 300 297 298 299 278 304 326 331 322 329 325 319 324 329 334 339 340 341 342 341 339 338
155 156 163 172 185 195 198 199 197 198 210 229 237 236 224 216 210 196 187 180 175 177 174 164 144 106 89 66 35 20 15 11 13 14 8 8 10 4 3 3 3 4 4 8 10 6 3 352 345 347 337 307 308 315 322 325 330 334 336 334 338 345 344 337 305 294 304 293 288 278 263 299 326 328 318 325 323 318 326 332 336 339 341 342 342 341 339 339
149 149 159 173 187 193 196 205 205 201 208 223 229 228 228 223 214 206 200 192 187 185 181 175 156 126 81 52 27 16 11 2 5 6 3 4 4 2 2 2 3 3 2 5 5 4 5 355 347 343 321 296 294 302 314 323 339 345 332 326 329 329 327 321 299 297 298 286 293 292 265 295 317 322 322 324 320 321 330 335 337 340 342 342 343 342 340 339
152 154 162 173 190 198 199 204 204 201 207 219 229 231 230 227 220 217 211 201 198 190 182 177 160 151 72 36 18 10 8 2 359 357 357 358 357 360 359 359 4 4 2 2 1 3 5 356 348 341 323 302 286 298 322 329 339 334 306 310 318 321 322 319 310 303 289 270 290 293 271 292 313 323 323 322 321 326 334 337 338 341 342 343 344 343 341 339
163 167 171 184 203 210 213 212 208 210 215 220 232 238 231 228 223 220 215 207 203 198 193 186 169 166 351 357 355 357 356 354 355 351 350 350 350 355 355 356 2 3 3 2 359 358 356 354 356 349 335 329 305 307 317 314 312 305 298 306 314 317 317 315 308 294 284 286 289 282 282 298 317 329 327 324 327 331 337 339 339 341 343 344 344 343 342 340
162 166 171 210 233 231 230 224 221 230 234 226 230 239 234 231 228 222 218 214 209 204 200 194 189 203 287 331 334 343 339 339 345 344 344 344 344 348 349 350 355 359 2 0 356 355 352 350 354 347 331 319 303 304 311 305 299 300 302 303 304 308 310 308 296 278 287 296 289 287 289 299 321 336 333 328 332 334 337 339 339 341 344 344 344 344 343 341
170 186 227 287 275 262 254 242 237 243 243 234 234 238 238 237 234 227 225 222 218 213 206 204 208 219 264 318 323 330 330 327 329 333 338 340 338 339 340 342 346 352 357 356 354 354 349 346 346 341 337 329 312 311 316 309 303 305 304 298 299 304 304 299 294 294 299 287 286 305 307 304 323 338 334 331 334 335 337 339 339 341 343 343 345 345 343 341
223 234 268 292 286 282 274 256 245 244 242 240 243 243 243 242 238 235 232 229 227 223 218 218 221 230 259 300 313 318 320 320 322 325 330 336 336 332 331 335 337 342 349 351 351 350 345 343 341 337 341 339 321 320 325 317 313 309 300 296 298 301 303 304 304 307 299 277 293 318 320 313 327 337 334 333 334 334 338 340 339 340 341 342 345 345 343 341
243 252 271 289 293 293 283 262 249 247 245 246 250 251 248 244 241 240 237 233 233 233 230 227 227 238 258 278 299 310 312 317 319 318 321 328 332 328 325 328 331 334 341 344 346 347 341 339 339 335 339 344 331 330 333 325 320 312 296 296 299 298 304 310 315 317 304 295 309 320 315 317 332 335 331 334 336 336 339 340 338 340 341 342 344 344 344 343
247 258 275 294 303 300 288 270 255 249 247 248 253 254 251 245 241 240 238 238 239 238 238 236 232 242 259 273 292 302 306 312 313 313 315 319 327 328 322 322 326 330 335 338 340 343 336 334 338 332 333 344 343 337 337 330 321 311 294 298 304 303 307 311 316 321 313 310 319 317 311 322 335 333 331 337 339 338 340 339 338 340 340 341 343 344 345 345
258 275 293 303 305 301 291 273 258 251 249 251 255 256 253 248 243 240 238 241 243 243 242 241 239 245 257 270 286 295 301 308 310 312 314 312 320 327 321 317 321 325 331 333 334 338 334 332 337 333 329 337 341 337 335 326 311 301 300 311 313 312 315 317 319 323 321 319 319 312 312 326 335 333 335 341 341 340 340 340 339 339 339 340 343 345 345 345
270 289 302 306 306 304 295 275 256 251 251 253 257 257 255 251 245 243 242 243 245 246 247 246 245 249 256 266 281 291 298 307 310 311 313 312 314 322 322 317 316 321 327 329 329 334 334 330 333 330 322 327 335 336 332 320 299 298 319 327 324 321 323 325 324 326 328 321 309 308 319 330 335 336 338 340 341 340 340 340 339 338 338 340 344 346 346 345
Height
3149 3150 3151 3153 3153 3153 3154 3154 3154 3154 3154 3153 3153 3152 3152 3152 3152 3152 3152 3151 3151 3152 3152 3153 3153 3152 3152 3152 3152 3152 3152 3151 3151 3152 3152 3153 3152 3152 3152 3151 3150 3149 3149 3148 3147 3146 3145 3145 3144 3144 3143 3142 3142 3142 3141 3140 3140 3139 3140 3142 3142 3142 3141 3139 3138 3136 3135 3133 3132 3129 3126 3126 3124 3120 3119 3119 3116 3115 3114 3110 3109 3107 3105 3103 3101 3100 3098 3096
3149 3150 3152 3153 3154 3154 3154 3154 3154 3154 3154 3154 3153 3153 3153 3153 3153 3152 3152 3152 3152 3153 3153 3154 3153 3153 3153 3153 3153 3153 3153 3152 3152 3154 3154 3154 3153 3153 3153 3152 3151 3150 3149 3148 3147 3146 3146 3146 3145 3144 3143 3143 3143 3142 3141 3140 3140 3140 3141 3142 3142 3141 3140 3137 3137 3135 3133 3131 3130 3129 3126 3124 3123 3120 3118 3117 3114 3112 3110 3106 3106 3105 3103 3101 3099 3098 3095 3093
3150 3151 3152 3153 3154 3154 3155 3155 3155 3155 3155 3154 3153 3153 3154 3154 3153 3153 3153 3153 3154 3154 3154 3154 3154 3154 3154 3154 3154 3154 3154 3153 3154 3156 3155 3155 3154 3154 3153 3152 3151 3150 3150 3149 3148 3147 3147 3146 3145 3145 3144 3144 3144 3142 3142 3141 3140 3140 3141 3142 3141 3141 3139 3136 3135 3133 3131 3130 3128 3127 3125 3123 3121 3119 3117 3116 3114 3112 3107 3103 3103 3102 3100 3099 3097 3095 3092 3090
3150 3151 3153 3154 3154 3155 3155 3155 3155 3155 3155 3154 3154 3154 3154 3154 3154 3154 3154 3154 3155 3155 3155 3155 3155 3156 3155 3155 3155 3155 3155 3155 3156 3156 3156 3156 3155 3154 3153 3152 3151 3150 3150 3149 3148 3147 3147 3146 3145 3145 3144 3144 3143 3142 3142 3141 3141 3139 3140 3141 3140 3139 3138 3135 3133 3132 3130 3129 3127 3125 3124 3122 3119 3117 3116 3114 3113 3111 3106 3103 3101 3098 3097 3096 3093 3091 3089 3087
3150 3151 3153 3154 3155 3155 3156 3156 3156 3156 3155 3154 3155 3155 3155 3155 3155 3155 3155 3156 3156 3156 3156 3156 3156 3156 3156 3156 3156 3156 3156 3156 3157 3157 3156 3156 3155 3154 3153 3153 3152 3151 3150 3148 3147 3147 3147 3146 3145 3145 3144 3144 3143 3142 3141 3141 3140 3139 3139 3139 3138 3137 3136 3134 3132 3130 3129 3127 3126 3124 3122 3120 3118 3114 3113 3112 3111 3109 3105 3102 3100 3096 3094 3092 3090 3088 3086 3084
3151 3152 3153 3154 3155 3155 3156 3157 3157 3156 3155 3155 3155 3156 3155 3156 3156 3156 3156 3157 3157 3157 3157 3157 3157 3157 3157 3157 3157 3157 3157 3158 3158 3158 3157 3156 3155 3154 3154 3153 3152 3150 3149 3148 3148 3148 3147 3146 3145 3145 3144 3144 3143 3143 3142 3141 3140 3140 3139 3138 3137 3136 3135 3133 3131 3129 3128 3126 3124 3123 3120 3118 3117 3113 3109 3109 3107 3105 3103 3100 3097 3094 3092 3090 3087 3085 3083 3081
3151 3152 3153 3154 3155 3156 3156 3157 3157 3156 3156 3156 3156 3156 3156 3157 3157 3157 3158 3158 3158 3158 3158 3158 3158 3158 3158 3158 3158 3158 3159 3158 3158 3158 3157 3157 3155 3154 3154 3152 3151 3150 3149 3149 3149 3148 3147 3147 3146 3145 3144 3144 3143 3142 3141 3140 3140 3140 3138 3137 3136 3135 3134 3132 3130 3128 3126 3125 3123 3121 3119 3116 3115 3112 3107 3106 3104 3103 3101 3098 3096 3093 3090 3088 3085 3083 3081 3078
3152 3153 3153 3155 3156 3156 3156 3156 3156 3157 3157 3157 3157 3157 3157 3158 3158 3158 3159 3159 3159 3159 3159 3159 3159 3159 3159 3159 3158 3159 3160 3159 3158 3158 3157 3156 3155 3154 3153 3152 3151 3151 3150 3150 3149 3148 3148 3147 3146 3145 3144 3144 3143 3142 3141 3140 3139 3139 3138 3136 3135 3134 3133 3131 3129 3127 3125 3123 3122 3120 3119 3115 3112 3109 3105 3104 3102 3100 3098 3096 3093 3090 3088 3085 3083 3080 3078 3076
3153 3154 3154 3156 3156 3156 3157 3157 3157 3157 3157 3157 3158 3158 3158 3159 3159 3159 3160 3160 3160 3160 3160 3160 3160 3160 3160 3160 3159 3160 3161 3159 3159 3158 3157 3156 3156 3155 3154 3153 3152 3151 3151 3150 3149 3148 3148 3147 3146 3145 3144 3144 3143 3142 3141 3140 3139 3138 3137 3135 3134 3133 3132 3130 3128 3127 3124 3122 3120 3119 3117 3113 3109 3106 3103 3102 3100 3098 3095 3093 3090 3087 3085 3082 3080 3078 3075 3073
3153 3155 3155 3156 3156 3156 3157 3157 3157 3157 3158 3158 3159 3159 3159 3159 3160 3160 3161 3161 3161 3161 3161 3161 3161 3161 3161 3161 3161 3161 3161 3160 3159 3158 3158 3157 3156 3155 3154 3154 3153 3152 3151 3151 3150 3149 3148 3147 3146 3145 3144 3143 3142 3141 3140 3140 3139 3137 3136 3135 3134 3132 3130 3129 3128 3127 3124 3121 3119 3116 3114 3110 3106 3104 3102 3101 3098 3095 3093 3090 3088 3085 3083 3080 3078 3075 3073 3071
3153 3155 3155 3156 3156 3156 3157 3157 3158 3158 3159 3159 3160 3160 3160 3160 3161 3161 3161 3162 3161 3161 3162 3162 3162 3162 3161 3161 3161 3162 3161 3160 3159 3159 3158 3157 3156 3156 3155 3155 3154 3153 3152 3151 3150 3149 3148 3147 3146 3145 3144 3142 3141 3140 3139 3139 3138 3137 3135 3134 3133 3131 3129 3129 3128 3125 3122 3119 3116 3112 3109 3106 3104 3103 3101 3099 3096 3093 3091 3088 3086 3083 3081 3078 3076 3074 3071 3069
3154 3155 3155 3155 3156 3157 3158 3158 3158 3159 3160 3160 3160 3160 3161 3161 3162 3162 3162 3162 3162 3162 3163 3163 3163 3162 3161 3162 3163 3162 3161 3160 3160 3160 3159 3158 3157 3157 3156 3155 3154 3153 3152 3151 3150 3149 3147 3146 3145 3144 3143 3142 3140 3139 3138 3138 3137 3136 3134 3134 3133 3132 3129 3128 3126 3122 3120 3118 3113 3109 3108 3105 3103 3103 3100 3098 3095 3091 3089 3086 3084 3081 3079 3077 3074 3072 3070 3068
3154 3155 3155 3156 3157 3158 3158 3158 3159 3160 3160 3161 3161 3161 3162 3162 3163 3163 3163 3163 3163 3163 3164 3164 3164 3163 3162 3163 3163 3162 3161 3162 3161 3160 3159 3159 3158 3157 3157 3156 3155 3154 3152 3151 3150 3148 3147 3146 3145 3144 3143 3141 3140 3139 3138 3137 3137 3135 3133 3133 3133 3132 3130 3127 3123 3120 3118 3116 3111 3108 3109 3106 3103 3102 3099 3096 3094 3090 3087 3084 3082 3080 3077 3075 3073 3071 3068 3066
3155 3155 3156 3157 3158 3158 3159 3159 3160 3161 3161 3161 3162 3162 3163 3163 3163 3163 3164 3164 3164 3164 3164 3164 3164 3163 3163 3164 3164 3163 3163 3162 3161 3160 3160 3159 3159 3158 3157 3156 3155 3154 3152 3151 3149 3148 3147 3146 3144 3143 3142 3141 3140 3138 3136 3136 3134 3133 3131 3131 3131 3130 3129 3124 3120 3118 3116 3114 3111 3109 3109 3106 3101 3100 3098 3095 3093 3089 3086 3084 3081 3079 3076 3074 3071 3069 3067 3065
3155 3156 3157 3157 3158 3159 3159 3160 3161 3161 3162 3162 3163 3164 3164 3164 3164 3164 3164 3165 3165 3165 3165 3165 3164 3164 3164 3165 3164 3163 3163 3162 3162 3162 3161 3160 3159 3158 3157 3156 3155 3154 3152 3151 3150 3149 3147 3146 3144 3144 3143 3141 3139 3136 3136 3135 3134 3132 3130 3130 3129 3128 3127 3123 3119 3117 3114 3112 3111 3109 3108 3106 3101 3099 3097 3094 3092 3089 3086 3083 3081 3078 3075 3072 3070 3068 3066 3064
3156 3157 3157 3158 3159 3160 3161 3161 3162 3162 3163 3164 3164 3165 3164 3164 3164 3165 3165 3166 3166 3166 3165 3165 3165 3165 3166 3165 3164 3164 3164 3163 3163 3162 3161 3161 3160 3159 3158 3156 3155 3154 3152 3151 3150 3148 3147 3146 3145 3144 3142 3140 3138 3137 3137 3136 3134 3132 3130 3129 3127 3125 3124 3123 3120 3117 3114 3111 3109 3108 3107 3105 3100 3098 3096 3093 3091 3088 3085 3083 3080 3077 3074 3071 3069 3066 3065 3062
3157 3158 3158 3159 3160 3161 3162 3163 3163 3164 3165 3165 3165 3165 3165 3165 3165 3166 3166 3166 3166 3166 3166 3165 3166 3166 3166 3166 3165 3166 3165 3165 3164 3163 3162 3161 3160 3159 3157 3156 3155 3153 3152 3151 3149 3148 3147 3147 3145 3142 3140 3138 3137 3136 3136 3134 3131 3129 3129 3128 3127 3125 3123 3122 3119 3115 3113 3110 3107 3106 3106 3103 3099 3097 3095 3092 3090 3087 3084 3082 3079 3076 3073 3070 3068 3065 3063 3061
3158 3159 3159 3160 3161 3162 3163 3164 3165 3165 3166 3166 3166 3166 3166 3166 3166 3167 3167 3167 3167 3167 3166 3166 3167 3167 3167 3167 3167 3166 3166 3165 3164 3163 3163 3162 3160 3159 3157 3156 3154 3153 3152 3151 3150 3149 3148 3147 3144 3141 3139 3137 3135 3133 3133 3134 3132 3129 3128 3127 3125 3124 3123 3121 3117 3113 3110 3108 3106 3105 3105 3102 3097 3095 3093 3089 3087 3085 3082 3080 3077 3074 3071 3069 3067 3064 3062 3059
3159 3160 3161 3161 3162 3164 3165 3165 3166 3166 3167 3167 3167 3167 3167 3167 3167 3168 3168 3168 3168 3167 3167 3168 3168 3168 3168 3168 3168 3167 3166 3165 3164 3164 3163 3162 3160 3159 3157 3156 3154 3154 3152 3151 3150 3149 3148 3146 3143 3140 3137 3135 3134 3134 3135 3135 3133 3130 3128 3128 3126 3123 3122 3120 3116 3112 3107 3104 3104 3103 3102 3100 3095 3092 3091 3087 3085 3083 3080 3078 3076 3073 3071 3069 3066 3063 3060 3057
3160 3161 3162 3163 3164 3165 3166 3166 3167 3167 3168 3168 3168 3168 3168 3168 3168 3168 3168 3169 3168 3168 3168 3169 3169 3168 3169 3169 3168 3168 3167 3166 3165 3165 3164 3162 3161 3159 3157 3156 3155 3154 3153 3152 3150 3148 3147 3144 3141 3139 3138 3137 3137 3136 3136 3134 3131 3129 3129 3128 3126 3123 3120 3117 3113 3111 3107 3102 3102 3102 3100 3097 3093 3090 3089 3086 3083 3081 3078 3076 3074 3072 3070 3068 3065 3063 3060 3056
3161 3162 3163 3164 3165 3166 3167 3167 3168 3168 3169 3169 3169 3169 3169 3169 3170 3170 3170 3170 3170 3169 3169 3169 3169 3169 3169 3169 3169 3168 3167 3166 3166 3166 3165 3163 3161 3159 3158 3157 3156 3154 3153 3151 3149 3147 3146 3142 3141 3141 3140 3139 3138 3136 3135 3132 3130 3130 3129 3127 3124 3122 3118 3114 3111 3109 3107 3103 3100 3100 3098 3094 3090 3088 3086 3084 3082 3080 3078 3075 3072 3071 3069 3066 3064 3061 3058 3056
3162 3163 3164 3166 3167 3167 3168 3168 3169 3169 3170 3170 3170 3170 3170 3170 3171 3171 3171 3171 3170 3170 3170 3170 3170 3170 3170 3170 3169 3169 3168 3168 3167 3167 3165 3163 3162 3160 3159 3157 3155 3153 3152 3150 3148 3147 3144 3142 3142 3142 3141 3139 3137 3136 3134 3133 3131 3130 3128 3125 3122 3120 3114 3110 3110 3109 3106 3103 3100 3098 3095 3091 3088 3086 3084 3082 3081 3079 3077 3074 3072 3070 3068 3065 3063 3060 3057 3055
3164 3165 3166 3167 3168 3168 3169 3169 3170 3171 3171 3171 3171 3171 3171 3172 3172 3172 3172 3172 3171 3171 3171 3171 3172 3172 3171 3171 3171 3170 3169 3169 3168 3167 3165 3164 3162 3160 3159 3157 3155 3153 3151 3150 3149 3148 3146 3144 3144 3143 3141 3139 3137 3136 3135 3133 3131 3129 3127 3124 3121 3118 3113 3109 3107 3106 3103 3101 3099 3097 3093 3088 3084 3083 3083 3081 3080 3078 3075 3074 3071 3069 3067 3064 3061 3059 3056 3053
3165 3166 3167 3168 3168 3169 3170 3171 3171 3171 3172 3172 3172 3172 3172 3173 3173 3172 3173 3173 3172 3172 3172 3173 3173 3173 3172 3172 3172 3171 3170 3169 3168 3167 3166 3164 3162 3160 3158 3156 3155 3153 3151 3149 3148 3147 3146 3145 3144 3143 3141 3139 3137 3136 3134 3132 3130 3128 3125 3124 3120 3117 3115 3111 3106 3103 3101 3099 3098 3096 3093 3089 3083 3080 3080 3079 3077 3076 3073 3072 3070 3067 3065 3062 3060 3058 3055 3050
3166 3166 3168 3168 3169 3170 3171 3171 3172 3172 3172 3173 3173 3173 3173 3173 3173 3173 3173 3173 3173 3174 3174 3174 3174 3173 3173 3173 3172 3171 3170 3170 3168 3167 3166 3164 3162 3159 3158 3156 3155 3153 3151 3150 3148 3146 3146 3146 3145 3143 3141 3139 3138 3135 3133 3131 3129 3128 3126 3124 3120 3116 3113 3110 3107 3104 3101 3099 3097 3095 3091 3089 3084 3079 3077 3076 3074 3073 3071 3069 3068 3066 3063 3060 3058 3055 3051 3047
3166 3167 3168 3169 3170 3171 3172 3172 3172 3172 3173 3173 3173 3174 3174 3174 3174 3174 3174 3174 3174 3175 3175 3174 3174 3174 3174 3173 3172 3171 3170 3170 3168 3167 3165 3163 3162 3160 3158 3157 3155 3153 3152 3150 3148 3147 3147 3146 3144 3143 3141 3139 3138 3135 3132 3130 3129 3129 3126 3122 3118 3115 3111 3109 3107 3104 3102 3099 3097 3095 3093 3088 3084 3079 3077 3076 3073 3072 3070 3067 3066 3064 3061 3058 3055 3051 3046 3042
3167 3168 3169 3170 3171 3172 3172 3172 3172 3172 3173 3173 3173 3174 3174 3174 3174 3175 3175 3174 3175 3176 3176 3175 3175 3175 3174 3173 3172 3171 3170 3170 3169 3167 3165 3164 3162 3161 3159 3157 3155 3154 3152 3150 3149 3149 3147 3146 3144 3143 3141 3139 3136 3134 3132 3129 3128 3127 3124 3120 3116 3112 3109 3107 3105 3104 3102 3099 3096 3096 3095 3089 3084 3080 3077 3075 3073 3071 3070 3067 3065 3063 3060 3057 3053 3048 3043 3039
3168 3169 3170 3171 3172 3172 3172 3172 3172 3172 3172 3173 3173 3173 3174 3174 3175 3175 3175 3175 3177 3177 3177 3176 3176 3175 3175 3173 3173 3172 3171 3170 3169 3167 3166 3164 3163 3161 3159 3158 3156 3154 3152 3151 3150 3149 3147 3146 3144 3142 3140 3138 3135 3134 3132 3129 3127 3125 3120 3116 3112 3109 3107 3105 3104 3103 3101 3099 3096 3095 3094 3090 3084 3080 3076 3074 3073 3072 3070 3068 3065 3061 3058 3054 3050 3045 3040 3035
3169 3170 3171 3171 3172 3172 3172 3172 3172 3172 3172 3173 3173 3174 3174 3174 3175 3175 3175 3176 3178 3178 3177 3177 3176 3175 3174 3174 3173 3172 3171 3170 3169 3167 3166 3165 3163 3161 3159 3157 3156 3154 3152 3151 3150 3148 3147 3145 3144 3141 3139 3137 3136 3134 3132 3128 3126 3122 3117 3113 3110 3108 3106 3103 3103 3102 3099 3097 3096 3095 3095 3091 3084 3078 3076 3074 3073 3071 3069 3066 3063 3060 3057 3052 3047 3042 3036 3030
3169 3170 3171 3172 3172 3172 3172 3172 3172 3172 3172 3173 3173 3174 3174 3175 3175 3175 3175 3177 3178 3177 3177 3177 3176 3175 3174 3174 3173 3172 3172 3170 3169 3168 3167 3165 3163 3161 3159 3157 3156 3154 3152 3151 3150 3148 3147 3145 3143 3141 3139 3138 3136 3133 3129 3127 3123 3119 3115 3112 3108 3105 3104 3102 3102 3101 3098 3096 3096 3095 3096 3093 3084 3078 3077 3075 3072 3070 3066 3063 3060 3057 3053 3048 3043 3038 3033 3026
3170 3171 3171 3172 3172 3172 3172 3172 3172 3172 3172 3173 3173 3174 3175 3175 3175 3175 3176 3177 3178 3177 3177 3177 3176 3176 3175 3174 3174 3173 3172 3171 3170 3169 3167 3165 3164 3162 3160 3158 3155 3153 3151 3150 3148 3147 3146 3144 3142 3141 3139 3137 3134 3131 3128 3126 3122 3120 3117 3111 3106 3104 3102 3101 3100 3100 3098 3096 3095 3095 3094 3091 3084 3078 3075 3073 3070 3068 3064 3060 3057 3052 3047 3043 3039 3035 3029 3023
3171 3171 3171 3171 3171 3172 3172 3172 3172 3173 3173 3173 3174 3174 3175 3175 3176 3175 3176 3177 3177 3177 3177 3177 3177 3176 3175 3174 3173 3173 3172 3171 3171 3169 3167 3165 3164 3161 3159 3157 3154 3153 3152 3151 3148 3146 3144 3143 3142 3139 3137 3134 3132 3131 3129 3126 3123 3120 3115 3109 3106 3103 3101 3101 3099 3099 3099 3097 3095 3093 3091 3088 3084 3079 3075 3071 3068 3066 3062 3059 3054 3050 3045 3041 3037 3032 3026 3019
3171 3171 3171 3171 3171 3172 3172 3172 3172 3173 3173 3174 3174 3174 3175 3175 3175 3175 3175 3176 3176 3177 3177 3177 3177 3176 3175 3174 3173 3173 3172 3171 3170 3168 3167 3165 3163 3161 3159 3157 3156 3154 3153 3151 3148 3147 3144 3143 3142 3139 3136 3134 3132 3131 3129 3126 3124 3121 3116 3113 3112 3111 3112 3111 3105 3101 3098 3095 3093 3092 3089 3086 3083 3078 3074 3071 3067 3064 3061 3057 3053 3048 3044 3039 3034 3028 3021 3015
3171 3171 3171 3171 3171 3172 3172 3172 3173 3173 3174 3174 3174 3174 3175 3175 3175 3175 3175 3176 3176 3177 3177 3177 3176 3175 3175 3174 3174 3173 3172 3171 3170 3168 3167 3165 3163 3162 3161 3159 3157 3155 3153 3151 3149 3148 3145 3144 3142 3141 3139 3136 3134 3133 3131 3129 3126 3124 3122 3122 3122 3123 3124 3119 3112 3107 3101 3093 3090 3090 3088 3086 3081 3075 3072 3069 3065 3061 3058 3055 3052 3048 3043 3037 3030 3024 3017 3011
3171 3171 3171 3171 3172 3172 3172 3172 3173 3173 3174 3174 3174 3175 3175 3175 3175 3175 3175 3176 3176 3177 3177 3177 3176 3175 3175 3174 3174 3173 3172 3171 3170 3168 3167 3165 3164 3163 3161 3159 3157 3155 3153 3151 3150 3148 3146 3145 3143 3141 3139 3137 3135 3134 3132 3130 3128 3127 3125 3125 3124 3125 3125 3120 3114 3111 3105 3095 3089 3087 3087 3085 3080 3073 3069 3067 3064 3060 3057 3054 3050 3046 3040 3033 3026 3019 3013 3008
3171 3171 3171 3172 3172 3172 3172 3173 3173 3174 3174 3174 3174 3175 3175 3175 3175 3175 3175 3176 3176 3176 3176 3176 3176 3175 3175 3174 3174 3173 3172 3171 3169 3168 3167 3165 3164 3163 3161 3160 3158 3156 3153 3152 3150 3148 3146 3144 3142 3140 3138 3136 3134 3133 3132 3131 3130 3128 3126 3126 3124 3122 3121 3119 3113 3109 3107 3099 3089 3085 3083 3080 3077 3072 3067 3066 3063 3059 3056 3052 3048 3042 3035 3028 3021 3015 3009 3004
3171 3171 3172 3172 3172 3172 3173 3173 3173 3174 3174 3174 3174 3175 3175 3175 3175 3175 3176 3176 3176 3176 3176 3176 3175 3175 3175 3174 3174 3173 3172 3171 3169 3168 3166 3165 3164 3163 3162 3160 3158 3156 3153 3152 3150 3148 3147 3144 3141 3140 3137 3135 3134 3132 3130 3129 3129 3128 3127 3125 3122 3119 3119 3118 3113 3107 3105 3098 3089 3085 3083 3078 3075 3072 3068 3065 3061 3056 3052 3048 3043 3037 3030 3024 3018 3012 3006 3002
3171 3172 3172 3172 3173 3173 3173 3173 3174 3174 3174 3174 3174 3175 3175 3175 3175 3176 3176 3176 3176 3176 3176 3176 3175 3175 3175 3174 3173 3173 3172 3170 3169 3168 3166 3165 3164 3163 3162 3159 3158 3156 3154 3152 3150 3148 3147 3144 3141 3139 3137 3135 3133 3131 3128 3126 3126 3126 3125 3123 3121 3121 3120 3119 3116 3112 3107 3099 3089 3084 3083 3080 3075 3071 3066 3062 3056 3051 3047 3043 3037 3032 3026 3020 3014 3009 3004 2999
3171 3172 3172 3172 3173 3173 3173 3174 3174 3174 3174 3174 3175 3175 3175 3175 3175 3176 3176 3176 3176 3176 3176 3175 3175 3175 3174 3174 3173 3172 3172 3170 3169 3168 3166 3165 3164 3163 3161 3159 3157 3156 3154 3152 3150 3148 3146 3145 3142 3139 3136 3134 3132 3131 3130 3128 3126 3124 3123 3121 3121 3122 3121 3118 3117 3115 3112 3106 3097 3086 3080 3077 3075 3070 3065 3061 3056 3051 3046 3040 3035 3030 3024 3018 3011 3006 3002 2997
3172 3172 3172 3173 3173 3173 3173 3174 3174 3174 3174 3175 3175 3175 3175 3176 3176 3176 3176 3176 3176 3176 3176 3175 3175 3175 3174 3173 3173 3172 3171 3170 3169 3167 3166 3165 3163 3162 3160 3159 3157 3155 3154 3152 3150 3148 3145 3144 3143 3139 3136 3134 3132 3131 3131 3130 3127 3125 3124 3122 3120 3120 3119 3116 3115 3114 3113 3110 3104 3094 3081 3072 3071 3068 3063 3061 3057 3051 3046 3039 3034 3028 3022 3016 3010 3005 3000 2995
3172 3172 3173 3173 3173 3173 3174 3174 3174 3174 3174 3175 3175 3175 3175 3176 3176 3176 3176 3176 3176 3176 3175 3175 3175 3174 3173 3173 3172 3172 3171 3170 3168 3167 3166 3164 3163 3161 3160 3158 3156 3154 3153 3151 3149 3147 3145 3144 3142 3138 3136 3135 3133 3131 3129 3128 3126 3125 3123 3122 3120 3119 3118 3116 3113 3111 3112 3110 3106 3102 3088 3070 3067 3068 3063 3060 3056 3049 3044 3037 3031 3026 3020 3014 3009 3003 2998 2993
3172 3172 3173 3173 3173 3173 3174 3174 3174 3174 3174 3174 3175 3175 3175 3176 3176 3176 3176 3176 3176 3175 3175 3175 3174 3174 3173 3172 3172 3171 3170 3169 3168 3167 3165 3164 3162 3161 3159 3157 3155 3153 3151 3149 3147 3146 3144 3143 3140 3137 3134 3133 3130 3129 3127 3126 3124 3122 3120 3119 3118 3117 3117 3117 3115 3109 3109 3107 3104 3104 3091 3070 3066 3069 3064 3059 3054 3047 3042 3036 3029 3023 3018 3012 3007 3001 2996 2991
3172 3173 3173 3173 3173 3173 3173 3173 3173 3174 3174 3174 3174 3175 3175 3175 3176 3176 3176 3176 3175 3175 3175 3174 3174 3173 3172 3172 3171 3170 3169 3168 3167 3166 3165 3164 3162 3161 3159 3157 3155 3152 3150 3148 3146 3144 3142 3140 3138 3135 3132 3129 3127 3126 3124 3122 3121 3119 3117 3116 3116 3116 3115 3115 3113 3109 3107 3103 3100 3100 3088 3068 3066 3068 3062 3057 3052 3045 3040 3034 3027 3021 3015 3011 3005 2999 2994 2989
3173 3173 3173 3173 3173 3173 3173 3173 3173 3173 3173 3174 3174 3174 3175 3175 3175 3176 3176 3175 3175 3175 3174 3174 3173 3173 3172 3171 3171 3170 3169 3168 3167 3166 3165 3163 3162 3161 3159 3157 3155 3153 3150 3148 3146 3144 3142 3140 3138 3134 3131 3127 3124 3123 3122 3120 3120 3119 3117 3116 3115 3115 3113 3111 3109 3107 3104 3099 3098 3097 3081 3065 3064 3065 3059 3055 3049 3042 3037 3031 3025 3019 3013 3008 3003 2997 2992 2987
3173 3173 3173 3173 3173 3173 3173 3173 3173 3173 3173 3173 3174 3174 3174 3174 3175 3175 3175 3175 3175 3174 3174 3173 3173 3172 3172 3171 3170 3169 3169 3167 3166 3165 3164 3163 3161 3160 3159 3157 3155 3153 3151 3148 3146 3144 3143 3141 3139 3137 3135 3131 3127 3126 3125 3122 3121 3119 3117 3114 3113 3112 3111 3108 3107 3105 3101 3096 3095 3091 3075 3060 3060 3061 3056 3051 3045 3038 3034 3028 3022 3018 3012 3006 3001 2995 2990 2985
3173 3173 3173 3173 3173 3173 3173 3173 3173 3173 3173 3173 3173 3173 3174 3174 3174 3175 3175 3175 3174 3174 3173 3172 3172 3171 3171 3170 3169 3169 3168 3167 3166 3164 3163 3162 3161 3159 3158 3156 3155 3153 3151 3149 3147 3144 3142 3140 3139 3138 3136 3135 3131 3128 3126 3123 3119 3117 3115 3113 3110 3109 3108 3106 3105 3102 3099 3093 3087 3082 3073 3060 3055 3054 3050 3045 3041 3035 3030 3024 3019 3014 3010 3004 2999 2994 2988 2983
3173 3173 3173 3173 3173 3173 3173 3173 3172 3172 3173 3173 3173 3173 3173 3173 3174 3174 3174 3174 3173 3173 3172 3172 3171 3171 3170 3169 3169 3168 3167 3166 3165 3164 3163 3161 3160 3159 3157 3155 3154 3152 3150 3149 3146 3144 3142 3139 3137 3135 3134 3132 3129 3125 3124 3121 3117 3114 3112 3110 3108 3106 3104 3103 3101 3097 3096 3091 3080 3073 3072 3063 3053 3049 3046 3041 3037 3032 3027 3021 3016 3011 3006 3002 2997 2992 2986 2981
3173 3173 3173 3173 3173 3173 3173 3172 3172 3172 3172 3172 3172 3172 3172 3173 3173 3173 3173 3173 3173 3172 3172 3171 3171 3170 3169 3169 3168 3167 3166 3165 3164 3163 3162 3160 3159 3158 3156 3155 3153 3151 3150 3148 3146 3143 3141 3138 3136 3133 3131 3129 3126 3123 3121 3118 3114 3111 3109 3107 3105 3103 3100 3098 3095 3092 3091 3087 3075 3067 3067 3061 3052 3048 3045 3041 3036 3030 3024 3019 3013 3008 3004 3000 2995 2990 2984 2979
3173 3173 3173 3173 3173 3173 3172 3172 3172 3172 3172 3172 3172 3172 3172 3172 3172 3172 3172 3172 3172 3171 3171 3170 3170 3169 3169 3168 3167 3166 3165 3164 3163 3162 3161 3159 3158 3157 3155 3154 3152 3150 3149 3146 3144 3142 3140 3137 3134 3131 3128 3126 3124 3121 3117 3114 3110 3108 3106 3105 3103 3100 3096 3093 3090 3088 3085 3079 3071 3065 3061 3056 3052 3048 3044 3040 3035 3028 3022 3017 3011 3006 3002 2997 2992 2987 2982 2977
3173 3173 3173 3173 3173 3172 3172 3172 3171 3171 3171 3171 3171 3171 3171 3171 3171 3171 3171 3171 3171 3170 3170 3169 3169 3168 3168 3167 3166 3165 3164 3163 3162 3161 3160 3158 3157 3155 3154 3152 3151 3149 3147 3145 3143 3141 3138 3135 3133 3129 3124 3121 3119 3117 3113 3110 3106 3104 3103 3101 3099 3096 3093 3090 3086 3084 3080 3074 3068 3064 3058 3052 3050 3048 3042 3038 3032 3025 3020 3015 3009 3005 3000 2995 2991 2985 2980 2975
3173 3173 3173 3173 3172 3172 3172 3171 3171 3171 3171 3171 3170 3171 3171 3170 3170 3170 3170 3170 3170 3169 3169 3169 3168 3168 3167 3166 3166 3165 3163 3162 3161 3160 3158 3157 3156 3154 3153 3151 3149 3147 3146 3144 3142 3139 3137 3133 3130 3127 3122 3118 3115 3113 3110 3107 3103 3101 3099 3098 3096 3093 3090 3086 3083 3080 3076 3070 3065 3062 3057 3051 3048 3044 3039 3034 3029 3023 3018 3013 3007 3003 2999 2994 2989 2983 2978 2973
3173 3173 3172 3172 3172 3171 3171 3171 3170 3170 3170 3170 3170 3170 3170 3170 3170 3169 3169 3169 3169 3168 3168 3168 3167 3167 3166 3165 3165 3164 3163 3161 3160 3159 3157 3156 3154 3153 3151 3149 3148 3146 3144 3143 3140 3138 3136 3132 3129 3127 3122 3116 3115 3113 3109 3105 3101 3097 3096 3095 3093 3090 3087 3082 3079 3076 3073 3069 3064 3059 3055 3049 3045 3040 3034 3030 3026 3022 3016 3011 3006 3001 2997 2992 2987 2981 2975 2970